Погода в Чарлевилле

Австралия     26°24′12″S   146°14′29″E
темп.,
°C
ветер,
м/с
пор.,
м/с
влажн.,
%
обл.,
%
осадки,
мм/ч
давл.,
гПа
погр.,
м
9 марта, вт
вт901:00+24ссз71163100 0.0 1012324
04:00+23с5116472 0.0 1011261
07:00+23ссз38710 0.0 1013355
10:00+30сз774528 0.0 10151153
13:00+33зсз553312 0.0 10122076
16:00+35ссз332813 0.0 10102783
19:00+26ю3364100 3.1 1012166
22:00+26юв6853100 6.1 1015133
10 марта, ср
ср1001:00+24юв247097 2.1 1014230
04:00+24с346892 2.1 101362
07:00+25ссв596872 0.0 1015222
10:00+28ссз465585 0.0 1016734
13:00+32сз343990 0.0 10141610
16:00+31зсз334295 0.3 1012747
19:00+29зсз2349100 0.0 101338
22:00+26ссв81265100 1.7 1015261
11 марта, чт
чт1101:00+25св4869100 0.2 1015176
04:00+24с597383 0.2 1014247
07:00+24с6107529 0.4 1016302
10:00+29с9115718 0.4 1016823
13:00+34ссз77384 0.0 10151913
16:00+33сз573835 0.0 10121754
19:00+30ссз464452 0.1 1012102
22:00+28с555455 0.8 101474
12 марта, пт
пт1201:00+26св456839 1.9 1014125
04:00+23ссв8117956 2.1 1014347
07:00+24с8137711 0.0 1016424
10:00+28ссз9115942 0.0 1015677
13:00+34сз76350 0.0 10131700
16:00+35зсз46302 0.0 10112571
19:00+30зюз564467 0.3 1012134
22:00+29с454682 1.3 101392
13 марта, сб
сб1301:00+26ссв595937 0.3 1013200
04:00+25с6106634 0.3 1012231
07:00+24с712700 0.0 1013361
10:00+31ссз810470 0.0 1013871
13:00+35зсз65300 0.0 10102726
16:00+35сз463033 0.0 10082747
19:00+32с573767 0.0 1009131
22:00+30с9134174 0.0 1010401